This is the latest recevied weather packets stored in our database for station/object W0AKY-13. If no packets are shown the sender has not sent any weather packets the latest 10 day(s).
| Time | Temp. | Humidity | Pressure | Rain* | Wind** | Luminosity | Snow |
|---|---|---|---|---|---|---|---|
| 1788437421 | 26.67° C | 69% | 1012.7 hPa | 0 mm | - | 1 W/m² | - |
| 1788437120 | 25.56° C | 72% | 1012.7 hPa | 0 mm | - | 1 W/m² | - |
| 1788436815 | 25.56° C | 73% | 1012.7 hPa | 0 mm | - | 1 W/m² | - |
| 1788436514 | 25.56° C | 74% | 1012.9 hPa | 0 mm | - | 1 W/m² | - |
| 1788436214 | 25° C | 75% | 1012.7 hPa | 0 mm | - | 0 W/m² | - |
| 1788435909 | 25.56° C | 74% | 1012.6 hPa | 0 mm | - | 0 W/m² | - |
| 1788435605 | 25° C | 75% | 1012.6 hPa | 0 mm | - | 0 W/m² | - |
| 1788435300 | 25° C | 75% | 1012.7 hPa | 0 mm | - | 0 W/m² | - |
| 1788434995 | 25° C | 77% | 1012.7 hPa | 0 mm | - | 0 W/m² | - |
| 1788434692 | 25° C | 75% | 1012.8 hPa | 0 mm | - | 0 W/m² | - |
| 1788434391 | 25.56° C | 75% | 1012.7 hPa | 0 mm | - | 0 W/m² | - |
| 1788434091 | 25.56° C | 74% | 1012.9 hPa | 0 mm | - | 0 W/m² | - |
| 1788433787 | 25.56° C | 73% | 1012.9 hPa | 0 mm | - | 0 W/m² | - |
| 1788433483 | 25.56° C | 73% | 1012.9 hPa | 0 mm | - | 0 W/m² | - |
| 1788433177 | 25.56° C | 73% | 1012.8 hPa | 0 mm | - | 0 W/m² | - |
| 1788432873 | 25.56° C | 73% | 1012.7 hPa | 0 mm | - | 0 W/m² | - |
| 1788432572 | 25.56° C | 74% | 1012.5 hPa | 0 mm | - | 0 W/m² | - |
| 1788432272 | 25.56° C | 74% | 1012.5 hPa | 0 mm | - | 0 W/m² | - |
| 1788431969 | 25.56° C | 75% | 1012.8 hPa | 0 mm | - | 0 W/m² | - |
| 1788431664 | 25.56° C | 74% | 1012.6 hPa | 0 mm | - | 0 W/m² | - |
| 1788431360 | 25.56° C | 75% | 1012.7 hPa | 0 mm | - | 0 W/m² | - |
| 1788431055 | 25.56° C | 74% | 1012.5 hPa | 0 mm | - | 0 W/m² | - |
| 1788430754 | 25.56° C | 75% | 1012.5 hPa | 0 mm | - | 0 W/m² | - |
| 1788430449 | 25° C | 75% | 1012.3 hPa | 0 mm | - | 0 W/m² | - |
| 1788430144 | 25° C | 76% | 1012.6 hPa | 0 mm | - | 0 W/m² | - |
* Rain latest hour (hover to see other rain measurements)
** Current wind speed in m/s (hover to see current wind gust speed)